[[{"header":{"parameterUnit":"m.s-1","parameterCategory":1,"la1":30.2991,"la2":30.254,"lo1":-89.0895,"lo2":-89.0444,"dy":0.0017,"dx":0.0017,"nx":28,"ny":28,"refTime":"2023-04-12T21:00:00:Z","depth":0,"parameterNumber":2,"parameterNumberName":"U-component_of_WINDS"},"data":[0,0,0,0,0,0,0,0,0,0,0,0,0,0,0,0,0,0,0,0,0,0,0,0,0,0,0,0,0,0,0,0,0,0,0,0,0,0,0,0,0,0,0,0,0,0,0,0,0,0,0,0,0,0,0,0,0,0,-6.2945,-6.2956,0,-6.3961,-6.3972,-6.3984,-6.4376,-6.4373,-6.437,-6.4367,-6.5423,-6.5453,-6.5484,0,0,0,0,0,0,0,0,0,0,0,0,0,-6.136,-6.1386,-6.2944,-6.2957,-6.2969,-6.3959,-6.3973,-6.3987,-6.4376,-6.4373,-6.4369,-6.4366,-6.5413,-6.5449,-6.5486,0,0,0,0,0,0,0,0,0,0,0,0,0,-6.2179,-6.1395,-6.2942,-6.3283,-6.3323,-6.3956,-6.3973,-6.3991,-6.4377,-6.4373,-6.4368,-6.4364,-6.5401,-6.5446,-6.5491,-6.5865,0,0,-6.5633,-6.5653,0,0,0,0,0,0,0,0,-6.2132,-6.2237,-6.322,-6.326,-6.3307,-6.4037,-6.3802,-6.4619,-6.4378,-6.3977,-6.4367,-6.4362,-6.4966,-6.5048,-6.5249,-6.5914,-6.5959,-6.5637,-6.5665,-6.5685,-6.5698,0,0,0,0,0,0,0,-6.2074,-6.2195,-6.3347,-6.3234,-6.3287,-6.3391,-6.3503,-6.3959,-6.4485,-6.4012,-6.4043,-6.4157,-6.499,-6.5203,-6.5277,-6.5975,-6.5636,-6.5677,-6.5705,-6.5723,-6.7007,-6.7013,0,0,0,0,0,0,-6.1959,-6.2145,-6.3315,-6.3377,-6.2696,-6.3423,-6.3548,-6.3807,-6.4481,-6.4579,-6.416,-6.4172,-6.5126,-6.5222,-6.5315,-6.5802,-6.5684,-6.5728,-6.5754,-6.7001,-6.7009,-6.7016,0,0,0,0,0,0,-6.1923,-6.2059,-6.3274,-6.277,-6.2933,-6.3455,-6.3743,-6.383,-6.4044,-6.4592,-6.4689,-6.428,-6.5127,-6.525,-6.5726,-6.5844,-6.5749,-6.5791,-6.6993,-6.7003,-6.7012,-6.6772,0,0,0,0,0,0,-6.1876,-6.2044,-6.2186,-6.277,-6.2958,-6.366,-6.375,-6.3853,-6.4121,-6.4146,-6.4731,-6.4824,-6.5133,-6.5655,-6.5772,-6.5906,-6.5827,-6.6985,-6.6998,-6.7009,-6.6772,-6.6772,-6.6773,0,0,0,0,0,-6.1818,-6.208,-6.2191,-6.233,-6.3145,-6.3666,-6.3774,-6.412,-6.4128,-6.4279,-6.4633,-6.4805,-6.5811,-6.57,-6.5835,-6.5984,-6.698,-6.6994,-6.7008,-6.6772,-6.6772,-6.6773,0,0,0,0,0,0,-6.1499,-6.2162,-6.2293,-6.275,-6.3148,-6.3731,-6.3931,-6.4108,-6.4516,-6.4523,-6.494,-6.5069,-6.5512,-6.5798,-6.5661,-6.6386,-6.6409,-6.645,-6.6182,-6.6188,-6.6188,-6.6111,-6.5865,0,0,0,0,0,-6.1481,-6.1843,-6.2406,-6.2755,-6.2948,-6.3403,-6.3644,-6.3876,-6.4307,-6.4479,-6.4868,-6.5284,-6.5696,-6.5958,-6.6366,-6.6816,-6.6953,-6.6986,-6.6986,-6.6983,-6.7015,-6.7282,-6.7305,-6.7063,-6.7062,-6.7062,0,0,-6.1449,-6.1856,-6.206,-6.2701,-6.3037,-6.3409,-6.3543,-6.393,-6.4212,-6.454,-6.5012,-6.5312,-6.5806,-6.6271,-6.6496,-6.6522,-6.7113,-6.7002,-6.6995,-6.7031,-6.7299,-6.7321,-6.7341,-6.7072,-6.7071,-6.7069,0,0,-6.1581,-6.1922,-6.2254,-6.2588,-6.3094,-6.3397,-6.3476,-6.4035,-6.4245,-6.4725,-6.4981,-6.5327,-6.6024,-6.6367,-6.6632,-6.69,-6.7077,-6.7022,-6.7024,-6.7279,-6.7298,-6.7317,-6.7417,-6.7448,-6.7052,-6.7052,-6.7051,0,-6.1478,-6.2043,-6.2403,-6.2778,-6.3055,-6.3366,-6.3709,-6.4018,-6.4632,-6.482,-6.484,-6.5726,-6.608,-6.6633,-6.6698,-6.6901,-6.7011,-6.6957,-6.7265,-6.7288,-6.7311,-6.7412,-6.7448,-6.7042,-6.7043,-6.7044,-6.7045,0,-6.1895,-6.2284,-6.2492,-6.3074,-6.3376,-6.3732,-6.4152,-6.4416,-6.4623,-6.4925,-6.5416,-6.5852,-6.6356,-6.6505,-6.6712,-6.7091,-6.7092,-6.7182,-6.7214,-6.7318,-6.742,-6.7461,-6.7028,-6.7031,-6.7034,-6.7037,0,0,-6.1851,-6.2631,-6.2701,-6.2972,-6.3556,-6.3867,-6.4241,-6.4731,-6.4951,-6.5367,-6.5696,-6.6281,-6.6371,-6.6672,-6.6922,-6.7145,-6.7336,-6.7212,-6.723,-6.7222,-6.7787,-6.7715,-6.7753,-6.7456,-6.7465,-6.7472,-6.7747,0,-6.2063,-6.2739,-6.3077,-6.3611,-6.3978,-6.4282,-6.4611,-6.5007,-6.5302,-6.5662,-6.5991,-6.64,-6.6485,-6.667,-6.6904,-6.7261,-6.7455,-6.7247,-6.7773,-6.7787,-6.7639,-6.7806,-6.7731,-6.7968,-6.7788,-6.7795,-6.78,0,-6.2399,-6.2809,-6.3376,-6.3923,-6.4091,-6.4377,-6.4858,-6.5196,-6.5656,-6.5856,-6.6193,-6.6438,-6.6852,-6.6852,-6.7432,-6.7283,-6.752,-6.7729,-6.7747,-6.781,-6.7799,-6.7876,-6.8052,-6.8087,-6.7866,-6.7861,-6.7856,0,-6.2313,-6.3008,-6.344,-6.3662,-6.4309,-6.4505,-6.4785,-6.5241,-6.5516,-6.5938,-6.6122,-6.6587,-6.6842,-6.72,-6.7567,-6.7533,-6.8114,-6.8144,-6.8297,-6.8287,-6.8405,-6.8393,-6.8622,-6.8553,-6.8552,-6.8551,-6.855,0,-6.2515,-6.2851,-6.3411,-6.3675,-6.4065,-6.4454,-6.4831,-6.5136,-6.554,-6.5875,-6.6169,-6.6478,-6.6943,-6.7314,-6.7605,-6.8044,-6.8157,-6.8334,-6.8408,-6.8309,-6.8286,-6.847,-6.8464,-6.8561,-6.8559,-6.8557,-6.8555,0,-6.2484,-6.2871,-6.3363,-6.3936,-6.4089,-6.435,-6.4845,-6.5119,-6.5429,-6.585,-6.5972,-6.6461,-6.6913,-6.7315,-6.7914,-6.8111,-6.8561,-6.8651,-6.8402,-6.8443,-6.8574,-6.8556,-6.8931,-6.9002,-6.8879,-6.8879,-6.888,0,-6.2587,-6.2853,-6.3455,-6.3699,-6.3972,-6.4361,-6.4643,-6.504,-6.5323,-6.5871,-6.608,-6.6552,-6.6951,-6.766,-6.8074,-6.8536,-6.8641,-6.8741,-6.8713,-6.8607,-6.8648,-6.8627,-6.8659,-6.8738,-6.8738,-6.8737,-6.8737,0,-6.273,-6.291,-6.3302,-6.3764,-6.4092,-6.4476,-6.4869,-6.5053,-6.5525,-6.583,-6.6293,-6.6602,-6.7215,-6.7682,-6.8191,-6.8489,-6.8694,-6.8742,-6.8803,-6.8705,-6.8551,-6.864,-6.84,-6.8732,-6.8733,-6.8733,-6.8733,-6.8733,-6.2774,-6.3026,-6.349,-6.392,-6.4257,-6.4619,-6.4905,-6.5251,-6.5643,-6.6169,-6.6382,-6.6854,-6.7319,-6.8022,-6.8319,-6.87,-6.8737,-6.8823,-6.8846,-6.8862,-6.8846,-6.8488,-6.8794,-6.8795,-6.8796,-6.8796,-6.8797,0,-6.2935,-6.3249,-6.364,-6.418,-6.452,-6.4679,-6.5125,-6.54,-6.5811,-6.6223,-6.661,-6.7146,-6.7603,-6.8053,-6.8536,-6.8755,-6.8862,-6.8869,-6.8857,-6.8924,-6.8783,-6.8684,-6.8774,-6.8774,-6.8774,-6.8774,-6.8774,-6.8774,-6.3058,-6.3495,-6.373,-6.4341,-6.4658,-6.5119,-6.536,-6.5699,-6.603,-6.6613,-6.6993,-6.7282,-6.7714,-6.8231,-6.866,-6.8782,-6.8948,-6.8928,-6.9075,-6.8936,-6.8933,-6.893,-6.8839,-6.8961,-6.8961,-6.9186,-6.9188,-6.9189]},{"header":{"parameterUnit":"m.s-1","parameterCategory":1,"la1":30.2991,"la2":30.254,"lo1":-89.0895,"lo2":-89.0444,"dy":0.0017,"dx":0.0017,"nx":28,"ny":28,"refTime":"2023-04-12T21:00:00:Z","depth":0,"parameterNumber":3,"parameterNumberName":"V-component_of_WINDS"},"data":[0,0,0,0,0,0,0,0,0,0,0,0,0,0,0,0,0,0,0,0,0,0,0,0,0,0,0,0,0,0,0,0,0,0,0,0,0,0,0,0,0,0,0,0,0,0,0,0,0,0,0,0,0,0,0,0,0,0,-9.8335,-9.8329,0,-9.7776,-9.777,-9.7763,-9.7377,-9.7374,-9.7371,-9.7368,-9.6743,-9.6729,-9.6715,0,0,0,0,0,0,0,0,0,0,0,0,0,-9.9011,-9.9001,-9.8335,-9.8328,-9.8321,-9.7777,-9.777,-9.7762,-9.7377,-9.7374,-9.737,-9.7367,-9.6748,-9.6731,-9.6714,0,0,0,0,0,0,0,0,0,0,0,0,0,-9.8611,-9.8997,-9.8336,-9.8065,-9.8035,-9.7779,-9.7769,-9.776,-9.7378,-9.7374,-9.7369,-9.7366,-9.6753,-9.6733,-9.6712,-9.6665,0,0,-9.6647,-9.6638,0,0,0,0,0,0,0,0,-9.8634,-9.8586,-9.8112,-9.8083,-9.805,-9.7643,-9.7778,-9.7391,-9.7379,-9.7626,-9.7368,-9.7364,-9.7042,-9.6997,-9.69,-9.6636,-9.6609,-9.6645,-9.6633,-9.6624,-9.6618,0,0,0,0,0,0,0,-9.8662,-9.8607,-9.8112,-9.8105,-9.8067,-9.7952,-9.7891,-9.7703,-9.7362,-9.7604,-9.7575,-9.7517,-9.7024,-9.6921,-9.6882,-9.6599,-9.6646,-9.6627,-9.6614,-9.6606,-9.6246,-9.6249,0,0,0,0,0,0,-9.874,-9.8633,-9.813,-9.8096,-9.8339,-9.7944,-9.7875,-9.7777,-9.7364,-9.7298,-9.7521,-9.7501,-9.6959,-9.6907,-9.6859,-9.6766,-9.6624,-9.6604,-9.6592,-9.6243,-9.6247,-9.625,0,0,0,0,0,0,-9.8756,-9.8699,-9.8152,-9.8356,-9.8279,-9.7937,-9.7829,-9.7768,-9.7666,-9.7302,-9.7233,-9.7483,-9.6954,-9.6888,-9.6715,-9.674,-9.6594,-9.6575,-9.6239,-9.6244,-9.6248,-9.659,0,0,0,0,0,0,-9.8777,-9.8707,-9.8701,-9.836,-9.827,-9.804,-9.7831,-9.776,-9.7637,-9.7605,-9.7248,-9.7184,-9.6946,-9.6749,-9.6695,-9.6708,-9.6559,-9.6235,-9.6241,-9.6247,-9.6575,-9.6606,-9.6632,0,0,0,0,0,-9.8803,-9.8811,-9.8703,-9.8644,-9.8258,-9.8042,-9.7988,-9.773,-9.7641,-9.7621,-9.7384,-9.7195,-9.6747,-9.6735,-9.667,-9.6678,-9.6233,-9.624,-9.6246,-9.6562,-9.66,-9.6632,0,0,0,0,0,0,-9.9149,-9.8762,-9.8638,-9.854,-9.8329,-9.7978,-9.7948,-9.778,-9.7576,-9.7553,-9.7222,-9.7144,-9.7002,-9.6819,-9.6815,-9.6599,-9.6464,-9.6459,-9.6726,-9.6759,-9.6787,-9.6832,-9.6541,0,0,0,0,0,-9.9218,-9.9093,-9.8753,-9.8698,-9.86,-9.8294,-9.8189,-9.8009,-9.7768,-9.7672,-9.7423,-9.7182,-9.6983,-9.686,-9.6659,-9.6545,-9.645,-9.6515,-9.6544,-9.6569,-9.6567,-9.6475,-9.6496,-9.6273,-9.6273,-9.6273,0,0,-9.935,-9.9123,-9.9062,-9.8762,-9.8577,-9.8437,-9.822,-9.8083,-9.7969,-9.7644,-9.7471,-9.7278,-9.6983,-9.6838,-9.6759,-9.6681,-9.6607,-9.6578,-9.6602,-9.6584,-9.6485,-9.6506,-9.6525,-9.6278,-9.6277,-9.6276,0,0,-9.9523,-9.9345,-9.9277,-9.9096,-9.8824,-9.8617,-9.8601,-9.8273,-9.8137,-9.796,-9.771,-9.7557,-9.7229,-9.7027,-9.6881,-9.6964,-9.6774,-9.6904,-9.7053,-9.6968,-9.6985,-9.6999,-9.7017,-9.7029,-9.6903,-9.6904,-9.6905,0,-9.972,-9.9519,-9.9257,-9.9136,-9.9003,-9.8716,-9.8632,-9.8462,-9.8131,-9.8036,-9.7957,-9.7532,-9.7313,-9.711,-9.713,-9.7024,-9.6978,-9.6945,-9.7008,-9.7019,-9.7027,-9.704,-9.7049,-9.6922,-9.692,-9.6918,-9.6916,0,-9.9767,-9.9628,-9.9601,-9.9307,-9.9168,-9.9066,-9.877,-9.8657,-9.8484,-9.828,-9.8089,-9.7817,-9.7551,-9.7488,-9.7312,-9.7252,-9.7211,-9.7075,-9.6931,-9.7071,-9.7076,-9.708,-9.6946,-9.694,-9.6935,-9.6931,0,0,-10.0148,-9.9708,-9.9702,-9.9559,-9.9231,-9.9108,-9.898,-9.8737,-9.8641,-9.8415,-9.8289,-9.8012,-9.7882,-9.7716,-9.7511,-9.7438,-9.7504,-9.7305,-9.7292,-9.7345,-9.7402,-9.7507,-9.7519,-9.7377,-9.7377,-9.7377,-9.7424,0,-10.0266,-10.005,-9.9805,-9.9662,-9.952,-9.9239,-9.9124,-9.8899,-9.87,-9.8533,-9.8302,-9.8111,-9.7958,-9.7854,-9.7769,-9.7517,-9.751,-9.7509,-9.7236,-9.723,-9.732,-9.7523,-9.7635,-9.7694,-9.7426,-9.7426,-9.7426,0,-10.0379,-10.0185,-10.0034,-9.971,-9.964,-9.9547,-9.9295,-9.9147,-9.8874,-9.8731,-9.8545,-9.8328,-9.8154,-9.8032,-9.7777,-9.7782,-9.7651,-9.7508,-9.7502,-9.7465,-9.7337,-9.7483,-9.7708,-9.7716,-9.7429,-9.7429,-9.7429,0,-10.0665,-10.0362,-10.023,-10.0116,-9.9737,-9.9675,-9.9509,-9.9236,-9.91,-9.887,-9.8775,-9.8523,-9.8383,-9.8181,-9.7891,-9.7831,-9.7661,-9.7517,-9.7521,-9.7528,-9.7498,-9.7504,-9.77,-9.7424,-9.7424,-9.7423,-9.7423,0,-10.0822,-10.0738,-10.0353,-10.0273,-10.0161,-9.9869,-9.976,-9.9566,-9.9323,-9.9181,-9.8913,-9.878,-9.841,-9.8225,-9.7994,-9.781,-9.7748,-9.7613,-9.7551,-9.7636,-9.7653,-9.7545,-9.7531,-9.7425,-9.7425,-9.7425,-9.7424,0,-10.1125,-10.0866,-10.0702,-10.0357,-10.0267,-10.02,-9.9892,-9.9789,-9.9573,-9.9396,-9.9335,-9.8988,-9.8756,-9.8449,-9.8115,-9.7957,-9.7797,-9.7705,-9.7898,-9.7861,-9.788,-9.788,-9.801,-9.8006,-9.7742,-9.7745,-9.7747,0,-10.1242,-10.1173,-10.0823,-10.0719,-10.0567,-10.04,-10.0262,-9.9963,-9.9826,-9.9505,-9.9435,-9.9187,-9.8974,-9.8609,-9.8312,-9.8049,-9.7943,-9.8006,-9.7901,-9.7984,-9.7933,-9.7941,-9.7924,-9.8033,-9.8038,-9.8041,-9.8044,0,-10.1474,-10.1348,-10.1173,-10.0947,-10.0795,-10.0598,-10.0386,-10.0308,-9.9958,-9.9813,-9.9584,-9.9419,-9.9082,-9.883,-9.8528,-9.8328,-9.812,-9.808,-9.8065,-9.8149,-9.8261,-9.8192,-9.7964,-9.8078,-9.8075,-9.8072,-9.807,-9.8069,-10.1681,-10.1604,-10.1346,-10.1151,-10.0964,-10.077,-10.0656,-10.0427,-10.0237,-9.9955,-9.978,-9.9553,-9.9257,-9.8834,-9.8643,-9.8442,-9.8362,-9.8344,-9.8338,-9.8337,-9.8361,-9.8298,-9.8385,-9.8383,-9.8382,-9.8381,-9.838,0,-10.1895,-10.1714,-10.1541,-10.126,-10.1102,-10.094,-10.0692,-10.0564,-10.0376,-10.0129,-9.9926,-9.9649,-9.94,-9.9082,-9.8804,-9.8703,-9.8598,-9.8638,-9.864,-9.8594,-9.8452,-9.8491,-9.8727,-9.8727,-9.8727,-9.8727,-9.8727,-9.8727,-10.1988,-10.1845,-10.1686,-10.1436,-10.1246,-10.104,-10.091,-10.072,-10.0523,-10.0235,-10.0034,-9.9834,-9.9549,-9.9247,-9.9002,-9.8911,-9.8815,-9.8884,-9.8764,-9.8637,-9.8606,-9.8577,-9.8611,-9.8868,-9.8868,-9.892,-9.8921,-9.8922]}]]